Precipitable_Water
0.22 0.25 0.27 0.28 0.27 0.28 0.28 0.28 0.28 0.29 0.31 0.32 0.30 0.31 0.33 0.31 0.27 0.26 0.33 0.41 0.39 0.46 0.58 0.69 0.74 0.77 0.78 0.79 0.77 0.79 0.84 0.85 0.85 0.82 0.84 0.92 0.98 0.99 0.99 1.00 1.05 1.12 1.16 1.23 1.38 1.52 1.60 1.64 1.65 1.68 1.75 1.82 1.87 1.92 1.96 1.90 1.87 1.83 1.82 1.76 1.69 1.63 1.60 1.57 1.54 1.56 1.57 1.58 1.57 1.55 1.52 1.49 1.46 1.42 1.39 1.35 1.30 1.24 1.17 1.11 1.07 1.02 0.98 0.95 0.91 0.91 0.94
0.19 0.21 0.23 0.26 0.24 0.23 0.23 0.24 0.26 0.28 0.29 0.30 0.31 0.32 0.35 0.34 0.32 0.35 0.40 0.44 0.43 0.50 0.56 0.66 0.74 0.80 0.80 0.83 0.85 0.82 0.79 0.84 0.84 0.83 0.84 0.87 0.93 0.97 0.99 0.99 1.02 1.08 1.13 1.19 1.31 1.44 1.55 1.63 1.65 1.66 1.69 1.75 1.82 1.86 1.91 1.98 1.93 1.89 1.87 1.79 1.72 1.66 1.59 1.55 1.57 1.60 1.60 1.60 1.58 1.56 1.54 1.49 1.46 1.46 1.44 1.42 1.38 1.32 1.25 1.19 1.14 1.11 1.07 1.03 0.98 0.94 0.92
0.14 0.19 0.22 0.24 0.22 0.21 0.18 0.23 0.25 0.27 0.29 0.30 0.32 0.32 0.36 0.38 0.34 0.41 0.40 0.43 0.43 0.60 0.66 0.66 0.75 0.80 0.81 0.79 0.79 0.78 0.76 0.84 0.86 0.86 0.86 0.87 0.90 0.94 0.95 0.98 1.01 1.04 1.07 1.15 1.26 1.34 1.44 1.54 1.62 1.67 1.69 1.72 1.79 1.84 1.89 1.95 2.00 2.02 1.94 1.85 1.80 1.73 1.63 1.62 1.64 1.65 1.64 1.62 1.61 1.56 1.53 1.52 1.52 1.51 1.48 1.47 1.44 1.40 1.36 1.32 1.25 1.20 1.16 1.10 1.06 1.03 0.99
0.12 0.17 0.18 0.19 0.21 0.20 0.20 0.20 0.22 0.24 0.26 0.26 0.30 0.31 0.36 0.35 0.33 0.38 0.36 0.35 0.40 0.59 0.68 0.69 0.71 0.74 0.75 0.74 0.75 0.77 0.77 0.78 0.86 0.88 0.87 0.88 0.89 0.91 0.92 0.94 0.98 1.00 1.04 1.09 1.17 1.26 1.34 1.43 1.52 1.60 1.68 1.72 1.74 1.78 1.86 1.93 2.04 2.07 2.03 1.93 1.86 1.82 1.77 1.72 1.66 1.64 1.65 1.65 1.64 1.59 1.54 1.48 1.46 1.47 1.50 1.50 1.47 1.45 1.42 1.38 1.36 1.33 1.26 1.19 1.16 1.13 1.11
0.11 0.17 0.19 0.17 0.18 0.18 0.16 0.18 0.22 0.24 0.25 0.28 0.32 0.39 0.44 0.44 0.45 0.36 0.29 0.32 0.52 0.58 0.65 0.61 0.63 0.68 0.70 0.72 0.75 0.76 0.80 0.80 0.81 0.87 0.91 0.92 0.92 0.92 0.94 0.91 0.92 0.96 1.01 1.06 1.11 1.18 1.25 1.30 1.35 1.45 1.55 1.64 1.70 1.75 1.83 1.92 2.04 2.04 2.03 2.02 1.97 1.90 1.88 1.85 1.78 1.66 1.55 1.54 1.57 1.60 1.60 1.56 1.52 1.48 1.45 1.44 1.44 1.44 1.41 1.41 1.42 1.38 1.33 1.29 1.24 1.22 1.18
0.12 0.17 0.17 0.17 0.11 0.08 0.11 0.27 0.31 0.30 0.25 0.26 0.25 0.31 0.40 0.47 0.49 0.42 0.47 0.49 0.56 0.58 0.59 0.59 0.60 0.61 0.65 0.69 0.74 0.79 0.80 0.81 0.81 0.84 0.90 0.96 0.98 0.97 0.97 0.95 0.94 0.95 1.00 1.04 1.06 1.12 1.19 1.22 1.25 1.31 1.40 1.45 1.61 1.76 1.84 1.89 1.95 2.02 2.03 2.05 2.04 2.02 2.00 1.96 1.92 1.86 1.73 1.58 1.48 1.51 1.59 1.63 1.64 1.60 1.52 1.43 1.40 1.41 1.43 1.46 1.45 1.42 1.40 1.36 1.33 1.28 1.24
0.12 0.16 0.15 0.10 0.06 0.07 0.20 0.25 0.33 0.36 0.37 0.36 0.34 0.40 0.45 0.50 0.53 0.53 0.51 0.54 0.55 0.59 0.60 0.62 0.66 0.67 0.69 0.72 0.71 0.74 0.81 0.84 0.83 0.81 0.84 0.89 0.98 0.99 0.97 0.97 0.97 0.95 0.97 1.01 1.04 1.03 1.11 1.15 1.17 1.20 1.23 1.31 1.41 1.65 1.73 1.83 1.86 1.86 1.94 1.97 2.00 2.02 2.01 2.03 2.04 1.98 1.92 1.84 1.71 1.62 1.60 1.63 1.66 1.66 1.65 1.59 1.51 1.46 1.42 1.40 1.40 1.41 1.42 1.41 1.41 1.39 1.35
0.18 0.14 0.12 0.06 0.08 0.18 0.24 0.27 0.32 0.38 0.39 0.35 0.34 0.33 0.44 0.50 0.53 0.55 0.52 0.56 0.60 0.61 0.61 0.62 0.63 0.64 0.68 0.71 0.72 0.72 0.75 0.79 0.79 0.79 0.80 0.83 0.89 0.96 1.01 1.00 1.00 1.00 0.97 0.97 1.01 1.02 1.06 1.12 1.14 1.15 1.15 1.20 1.27 1.35 1.54 1.73 1.80 1.85 1.89 1.93 1.98 2.02 2.00 2.02 2.04 2.08 2.08 2.01 1.90 1.80 1.72 1.67 1.64 1.64 1.65 1.63 1.61 1.60 1.53 1.48 1.47 1.47 1.48 1.48 1.44 1.42 1.41
0.12 0.15 0.14 0.12 0.21 0.19 0.23 0.25 0.25 0.30 0.26 0.32 0.29 0.21 0.30 0.45 0.48 0.50 0.52 0.55 0.57 0.59 0.60 0.61 0.63 0.64 0.63 0.59 0.64 0.72 0.71 0.71 0.75 0.76 0.78 0.80 0.82 0.88 0.97 1.06 1.05 1.06 1.05 1.02 1.01 1.03 1.03 1.04 1.11 1.12 1.12 1.14 1.15 1.22 1.35 1.56 1.76 1.83 1.90 1.90 2.00 2.01 2.02 2.04 2.05 2.10 2.15 2.10 2.03 1.94 1.85 1.76 1.66 1.60 1.60 1.62 1.63 1.69 1.64 1.58 1.51 1.46 1.42 1.42 1.43 1.43 1.42
0.21 0.15 0.13 0.14 0.12 0.09 0.17 0.27 0.36 0.37 0.38 0.37 0.40 0.31 0.26 0.43 0.46 0.49 0.47 0.46 0.52 0.54 0.55 0.56 0.59 0.62 0.55 0.47 0.54 0.66 0.68 0.68 0.67 0.71 0.73 0.75 0.77 0.82 0.89 0.97 1.05 1.07 1.07 1.07 1.05 1.02 0.99 1.00 1.04 1.10 1.13 1.13 1.11 1.13 1.20 1.36 1.48 1.76 1.84 1.86 1.93 2.00 1.98 2.02 2.06 2.09 2.11 2.10 2.05 1.99 1.93 1.86 1.79 1.75 1.72 1.70 1.69 1.73 1.67 1.63 1.58 1.54 1.52 1.50 1.50 1.48 1.44
0.19 0.17 0.12 0.12 0.10 0.13 0.25 0.29 0.32 0.37 0.39 0.39 0.40 0.26 0.19 0.41 0.46 0.50 0.49 0.46 0.48 0.49 0.50 0.52 0.54 0.48 0.41 0.45 0.53 0.63 0.66 0.67 0.67 0.65 0.66 0.68 0.69 0.73 0.81 0.86 0.91 1.01 1.06 1.07 1.07 1.04 1.01 0.98 1.01 1.04 1.06 1.10 1.09 1.10 1.20 1.21 1.36 1.58 1.72 1.76 1.86 1.88 1.88 1.95 2.05 2.10 2.11 2.07 2.01 1.97 1.93 1.92 1.91 1.84 1.79 1.74 1.72 1.74 1.72 1.71 1.67 1.67 1.64 1.56 1.51 1.50 1.47
0.19 0.18 0.14 0.12 0.16 0.15 0.25 0.30 0.35 0.38 0.43 0.39 0.30 0.11 0.14 0.40 0.48 0.49 0.48 0.47 0.47 0.48 0.51 0.53 0.50 0.44 0.37 0.43 0.54 0.67 0.68 0.68 0.68 0.67 0.64 0.64 0.63 0.64 0.69 0.77 0.84 0.93 1.03 1.06 1.05 1.04 1.02 1.01 1.04 1.04 1.02 1.02 1.06 1.11 1.13 1.21 1.19 1.31 1.46 1.69 1.82 1.87 1.93 2.00 2.07 2.11 2.11 2.09 2.05 1.99 1.93 1.95 1.98 1.94 1.93 1.89 1.85 1.81 1.78 1.77 1.74 1.71 1.67 1.59 1.49 1.45 1.47
0.20 0.19 0.18 0.20 0.21 0.28 0.31 0.33 0.37 0.39 0.41 0.34 0.17 0.10 0.25 0.45 0.48 0.50 0.49 0.49 0.49 0.49 0.46 0.48 0.45 0.52 0.55 0.56 0.61 0.65 0.68 0.66 0.66 0.68 0.68 0.66 0.66 0.63 0.63 0.65 0.73 0.79 0.91 0.99 1.03 1.04 1.07 1.08 1.06 1.05 1.03 0.99 0.99 1.05 1.13 1.11 1.14 1.17 1.29 1.46 1.63 1.79 1.89 1.97 2.07 2.09 2.12 2.10 2.08 2.06 2.03 2.00 2.05 2.05 2.04 1.98 1.97 1.93 1.84 1.83 1.79 1.73 1.66 1.57 1.49 1.45 1.47
0.17 0.20 0.16 0.16 0.19 0.26 0.32 0.35 0.38 0.44 0.33 0.17 0.14 0.31 0.43 0.43 0.41 0.45 0.44 0.42 0.45 0.47 0.46 0.46 0.46 0.52 0.58 0.59 0.60 0.59 0.60 0.60 0.62 0.65 0.65 0.65 0.63 0.64 0.64 0.64 0.65 0.70 0.78 0.88 0.97 1.02 1.06 1.08 1.10 1.06 1.02 0.99 0.98 1.04 1.08 1.10 1.14 1.19 1.23 1.32 1.38 1.48 1.69 1.88 1.99 2.03 2.06 2.12 2.15 2.16 2.16 2.13 2.08 2.06 2.08 2.06 2.02 1.99 1.95 1.86 1.76 1.68 1.62 1.56 1.50 1.46 1.47
0.22 0.21 0.17 0.15 0.11 0.34 0.33 0.34 0.30 0.39 0.21 0.23 0.36 0.38 0.42 0.43 0.42 0.40 0.41 0.41 0.42 0.43 0.41 0.43 0.43 0.44 0.48 0.51 0.54 0.56 0.58 0.58 0.58 0.60 0.61 0.61 0.60 0.59 0.59 0.57 0.59 0.62 0.67 0.75 0.84 0.95 1.03 1.06 1.08 1.08 1.04 0.98 1.00 1.02 1.05 1.10 1.17 1.23 1.25 1.23 1.25 1.33 1.49 1.64 1.80 1.96 2.02 2.11 2.18 2.24 2.19 2.18 2.16 2.09 2.09 2.05 1.99 1.95 1.87 1.81 1.74 1.66 1.60 1.55 1.49 1.44 1.44
0.14 0.16 0.13 0.12 0.17 0.26 0.35 0.28 0.21 0.29 0.30 0.34 0.35 0.34 0.31 0.38 0.37 0.35 0.35 0.36 0.38 0.40 0.39 0.39 0.40 0.42 0.42 0.41 0.45 0.50 0.55 0.57 0.57 0.58 0.59 0.60 0.61 0.60 0.60 0.60 0.59 0.59 0.59 0.66 0.74 0.86 0.96 1.04 1.07 1.08 1.05 0.99 0.99 0.99 1.01 1.12 1.16 1.21 1.25 1.22 1.20 1.21 1.31 1.43 1.56 1.69 1.88 2.01 2.22 2.24 2.15 2.11 2.13 2.14 2.08 2.07 2.02 1.92 1.83 1.76 1.71 1.66 1.63 1.59 1.52 1.43 1.38
0.19 0.16 0.18 0.23 0.28 0.32 0.36 0.33 0.31 0.33 0.36 0.38 0.38 0.36 0.35 0.33 0.35 0.38 0.35 0.34 0.36 0.37 0.37 0.37 0.37 0.36 0.40 0.42 0.43 0.43 0.46 0.51 0.54 0.54 0.55 0.57 0.58 0.58 0.58 0.57 0.58 0.57 0.57 0.59 0.64 0.72 0.86 0.95 1.04 1.08 1.08 1.02 0.99 0.97 1.03 1.11 1.15 1.18 1.19 1.22 1.17 1.16 1.19 1.29 1.39 1.47 1.65 1.89 2.09 2.13 2.13 2.18 2.13 2.12 2.09 2.05 1.98 1.94 1.88 1.81 1.76 1.71 1.69 1.68 1.57 1.49 1.44
0.30 0.30 0.30 0.31 0.33 0.34 0.36 0.39 0.39 0.38 0.39 0.42 0.42 0.39 0.36 0.37 0.38 0.38 0.35 0.36 0.36 0.38 0.40 0.38 0.38 0.39 0.39 0.40 0.42 0.44 0.45 0.47 0.51 0.54 0.54 0.54 0.57 0.59 0.58 0.57 0.55 0.55 0.56 0.57 0.59 0.62 0.70 0.85 0.93 1.04 1.08 1.07 1.01 1.01 1.07 1.08 1.12 1.16 1.20 1.17 1.12 1.13 1.16 1.20 1.28 1.37 1.40 1.52 1.78 1.92 2.03 2.12 2.16 2.18 2.15 2.06 1.95 1.92 1.88 1.85 1.82 1.77 1.77 1.76 1.69 1.60 1.52
0.26 0.19 0.31 0.29 0.29 0.33 0.35 0.36 0.39 0.41 0.42 0.41 0.42 0.40 0.39 0.39 0.40 0.40 0.40 0.39 0.39 0.40 0.42 0.42 0.41 0.41 0.43 0.42 0.42 0.43 0.44 0.44 0.46 0.50 0.52 0.52 0.53 0.52 0.52 0.54 0.55 0.53 0.53 0.53 0.55 0.58 0.61 0.70 0.83 0.93 1.02 1.08 1.09 1.10 1.09 1.11 1.12 1.14 1.14 1.16 1.14 1.12 1.13 1.17 1.21 1.25 1.29 1.31 1.37 1.50 1.74 1.96 2.07 2.13 2.16 2.11 2.02 1.93 1.82 1.75 1.78 1.79 1.79 1.80 1.76 1.69 1.61
0.25 0.23 0.29 0.33 0.35 0.36 0.37 0.36 0.35 0.35 0.37 0.39 0.41 0.41 0.40 0.40 0.41 0.41 0.40 0.41 0.40 0.42 0.41 0.44 0.44 0.44 0.46 0.45 0.43 0.43 0.43 0.44 0.45 0.46 0.47 0.48 0.49 0.51 0.52 0.52 0.54 0.54 0.52 0.52 0.53 0.55 0.57 0.62 0.72 0.82 0.91 0.99 1.08 1.12 1.13 1.14 1.14 1.13 1.12 1.13 1.17 1.15 1.10 1.13 1.15 1.15 1.19 1.25 1.29 1.34 1.43 1.60 1.83 2.00 2.09 2.12 2.08 1.99 1.81 1.65 1.64 1.72 1.76 1.79 1.79 1.74 1.66
0.32 0.35 0.35 0.36 0.38 0.37 0.38 0.39 0.40 0.39 0.39 0.38 0.39 0.39 0.38 0.38 0.36 0.37 0.39 0.41 0.41 0.42 0.42 0.45 0.45 0.45 0.47 0.48 0.48 0.46 0.45 0.45 0.45 0.46 0.47 0.48 0.47 0.48 0.48 0.49 0.51 0.51 0.52 0.52 0.54 0.56 0.56 0.60 0.67 0.75 0.83 0.91 0.98 1.10 1.14 1.14 1.13 1.10 1.09 1.12 1.14 1.16 1.13 1.09 1.11 1.16 1.19 1.24 1.25 1.30 1.37 1.44 1.56 1.77 1.91 1.93 1.84 1.75 1.71 1.72 1.78 1.78 1.77 1.81 1.82 1.81 1.78
0.29 0.28 0.31 0.37 0.29 0.28 0.36 0.40 0.42 0.41 0.41 0.40 0.38 0.38 0.37 0.37 0.36 0.36 0.36 0.36 0.39 0.41 0.43 0.45 0.46 0.45 0.46 0.48 0.50 0.48 0.49 0.48 0.49 0.49 0.48 0.49 0.48 0.47 0.49 0.50 0.49 0.50 0.52 0.53 0.54 0.56 0.57 0.60 0.64 0.70 0.76 0.84 0.92 0.99 1.13 1.17 1.13 1.08 1.10 1.11 1.13 1.15 1.12 1.09 1.10 1.13 1.16 1.21 1.26 1.30 1.31 1.31 1.36 1.47 1.78 1.98 1.99 1.86 1.79 1.86 1.90 1.92 1.92 1.85 1.83 1.84 1.81
0.31 0.38 0.42 0.44 0.42 0.41 0.42 0.44 0.46 0.46 0.44 0.41 0.38 0.37 0.36 0.37 0.38 0.38 0.36 0.35 0.35 0.36 0.39 0.44 0.45 0.46 0.46 0.46 0.48 0.47 0.48 0.49 0.51 0.52 0.51 0.50 0.49 0.48 0.48 0.48 0.47 0.47 0.48 0.52 0.56 0.58 0.60 0.62 0.64 0.68 0.72 0.78 0.85 0.93 1.01 1.14 1.15 1.12 1.12 1.09 1.11 1.14 1.13 1.09 1.12 1.13 1.16 1.20 1.23 1.27 1.30 1.31 1.34 1.37 1.46 1.75 1.99 2.04 2.01 1.97 1.97 1.95 1.96 1.96 1.97 1.97 1.91
0.48 0.49 0.49 0.49 0.47 0.43 0.47 0.50 0.50 0.49 0.48 0.43 0.39 0.39 0.39 0.38 0.38 0.38 0.38 0.37 0.36 0.36 0.38 0.41 0.44 0.44 0.46 0.48 0.48 0.45 0.47 0.49 0.51 0.52 0.53 0.53 0.52 0.51 0.51 0.49 0.48 0.47 0.47 0.50 0.55 0.60 0.63 0.63 0.62 0.65 0.70 0.74 0.80 0.89 0.97 1.02 1.09 1.12 1.13 1.12 1.10 1.12 1.14 1.13 1.15 1.19 1.19 1.20 1.24 1.26 1.30 1.35 1.34 1.36 1.42 1.46 1.60 1.91 1.98 2.00 1.97 1.90 1.89 1.89 1.91 1.93 1.92
0.49 0.56 0.56 0.55 0.53 0.53 0.55 0.55 0.55 0.54 0.51 0.46 0.40 0.38 0.37 0.37 0.38 0.39 0.38 0.38 0.40 0.39 0.38 0.39 0.42 0.45 0.44 0.44 0.46 0.46 0.46 0.48 0.52 0.54 0.54 0.55 0.56 0.56 0.54 0.53 0.51 0.52 0.52 0.54 0.56 0.59 0.61 0.61 0.62 0.64 0.67 0.71 0.79 0.86 0.93 0.96 0.98 1.06 1.13 1.14 1.15 1.15 1.14 1.13 1.14 1.22 1.24 1.20 1.22 1.26 1.26 1.28 1.32 1.37 1.36 1.39 1.38 1.42 1.74 1.94 1.97 1.96 1.91 1.86 1.84 1.85 1.86
0.62 0.61 0.60 0.60 0.59 0.57 0.59 0.59 0.57 0.56 0.52 0.47 0.42 0.40 0.41 0.41 0.40 0.40 0.39 0.40 0.40 0.41 0.41 0.41 0.41 0.44 0.45 0.43 0.42 0.44 0.46 0.49 0.54 0.57 0.56 0.55 0.55 0.55 0.54 0.52 0.53 0.54 0.54 0.54 0.54 0.55 0.57 0.60 0.62 0.63 0.65 0.70 0.78 0.86 0.91 0.91 0.92 0.97 1.06 1.13 1.18 1.18 1.16 1.13 1.12 1.16 1.19 1.17 1.21 1.26 1.30 1.32 1.32 1.32 1.32 1.36 1.38 1.42 1.42 1.59 1.77 1.85 1.89 1.87 1.84 1.84 1.85
0.67 0.67 0.63 0.58 0.56 0.57 0.60 0.55 0.53 0.56 0.51 0.47 0.42 0.40 0.40 0.41 0.41 0.41 0.42 0.42 0.41 0.41 0.42 0.42 0.43 0.43 0.43 0.44 0.43 0.44 0.45 0.50 0.55 0.57 0.58 0.56 0.55 0.55 0.56 0.56 0.55 0.54 0.54 0.53 0.52 0.52 0.55 0.61 0.64 0.64 0.64 0.70 0.82 0.89 0.89 0.88 0.87 0.91 0.99 1.06 1.16 1.21 1.22 1.20 1.17 1.15 1.14 1.11 1.16 1.22 1.27 1.28 1.30 1.31 1.29 1.30 1.37 1.35 1.35 1.37 1.45 1.54 1.62 1.72 1.81 1.80 1.76
0.68 0.68 0.65 0.56 0.54 0.57 0.59 0.63 0.61 0.56 0.49 0.44 0.42 0.41 0.41 0.43 0.42 0.40 0.38 0.38 0.38 0.40 0.41 0.42 0.42 0.41 0.39 0.41 0.43 0.43 0.46 0.48 0.51 0.56 0.58 0.58 0.60 0.60 0.59 0.58 0.57 0.55 0.54 0.53 0.52 0.53 0.56 0.59 0.63 0.63 0.63 0.70 0.81 0.88 0.89 0.87 0.85 0.87 0.94 1.00 1.06 1.15 1.22 1.21 1.17 1.16 1.15 1.10 1.10 1.17 1.20 1.24 1.29 1.31 1.31 1.28 1.25 1.28 1.31 1.36 1.41 1.44 1.48 1.57 1.66 1.71 1.73
0.68 0.68 0.69 0.68 0.67 0.67 0.67 0.65 0.59 0.52 0.45 0.45 0.44 0.44 0.43 0.40 0.38 0.37 0.36 0.36 0.38 0.39 0.39 0.41 0.43 0.42 0.41 0.41 0.43 0.44 0.46 0.49 0.52 0.55 0.59 0.63 0.65 0.65 0.64 0.62 0.60 0.59 0.56 0.53 0.53 0.54 0.57 0.60 0.61 0.62 0.62 0.72 0.81 0.87 0.89 0.88 0.85 0.87 0.92 0.97 1.00 1.04 1.15 1.21 1.18 1.16 1.17 1.15 1.11 1.17 1.22 1.25 1.26 1.26 1.27 1.27 1.25 1.27 1.30 1.31 1.33 1.42 1.46 1.53 1.59 1.60 1.63
0.69 0.71 0.70 0.69 0.69 0.67 0.62 0.56 0.49 0.45 0.43 0.43 0.42 0.42 0.42 0.40 0.37 0.35 0.36 0.37 0.40 0.39 0.40 0.41 0.40 0.40 0.42 0.43 0.46 0.48 0.49 0.51 0.55 0.60 0.63 0.66 0.67 0.68 0.67 0.65 0.63 0.59 0.56 0.53 0.52 0.54 0.57 0.59 0.60 0.61 0.65 0.74 0.81 0.87 0.89 0.88 0.87 0.90 0.94 0.99 1.01 1.03 1.07 1.16 1.17 1.16 1.17 1.16 1.14 1.18 1.21 1.25 1.27 1.27 1.26 1.25 1.23 1.21 1.24 1.28 1.31 1.33 1.34 1.40 1.45 1.45 1.43
0.69 0.68 0.68 0.68 0.65 0.61 0.55 0.48 0.44 0.43 0.43 0.43 0.43 0.41 0.40 0.40 0.37 0.36 0.37 0.39 0.41 0.41 0.42 0.41 0.40 0.40 0.42 0.45 0.49 0.52 0.56 0.59 0.62 0.65 0.67 0.69 0.70 0.70 0.69 0.67 0.60 0.54 0.52 0.52 0.54 0.57 0.59 0.62 0.64 0.65 0.72 0.78 0.82 0.86 0.88 0.87 0.87 0.90 0.93 0.96 1.00 1.03 1.08 1.14 1.17 1.18 1.16 1.16 1.16 1.18 1.20 1.23 1.26 1.28 1.25 1.25 1.22 1.19 1.19 1.23 1.26 1.28 1.31 1.34 1.36 1.38 1.44
0.64 0.63 0.62 0.60 0.57 0.52 0.47 0.44 0.43 0.42 0.42 0.43 0.41 0.39 0.38 0.37 0.36 0.37 0.38 0.39 0.40 0.42 0.42 0.41 0.40 0.41 0.45 0.49 0.53 0.57 0.61 0.64 0.66 0.67 0.69 0.69 0.70 0.72 0.71 0.69 0.65 0.62 0.59 0.58 0.58 0.60 0.63 0.64 0.64 0.69 0.77 0.79 0.81 0.84 0.87 0.87 0.88 0.89 0.91 0.95 0.97 0.99 1.03 1.09 1.13 1.15 1.13 1.13 1.13 1.13 1.18 1.20 1.21 1.26 1.26 1.25 1.23 1.19 1.17 1.18 1.19 1.22 1.26 1.27 1.27 1.31 1.47
0.58 0.54 0.52 0.50 0.47 0.44 0.42 0.43 0.42 0.42 0.42 0.41 0.40 0.40 0.41 0.42 0.42 0.42 0.42 0.42 0.42 0.42 0.42 0.42 0.43 0.46 0.50 0.54 0.59 0.63 0.66 0.68 0.68 0.68 0.68 0.68 0.69 0.71 0.72 0.72 0.69 0.66 0.64 0.62 0.63 0.66 0.68 0.67 0.70 0.78 0.80 0.80 0.81 0.84 0.86 0.87 0.89 0.91 0.94 0.96 0.97 0.99 1.00 1.04 1.09 1.11 1.11 1.09 1.08 1.07 1.10 1.16 1.22 1.24 1.24 1.24 1.26 1.24 1.21 1.18 1.17 1.19 1.21 1.23 1.26 1.32 1.42
0.56 0.51 0.47 0.46 0.43 0.41 0.40 0.41 0.44 0.43 0.43 0.42 0.41 0.41 0.42 0.44 0.45 0.44 0.43 0.43 0.42 0.42 0.42 0.43 0.45 0.51 0.56 0.60 0.64 0.67 0.68 0.66 0.64 0.65 0.67 0.69 0.70 0.71 0.73 0.74 0.72 0.70 0.68 0.68 0.68 0.70 0.73 0.76 0.79 0.81 0.82 0.83 0.83 0.85 0.86 0.88 0.91 0.94 0.96 0.97 0.98 0.99 1.01 1.04 1.08 1.09 1.06 1.05 1.04 1.04 1.02 1.04 1.11 1.21 1.25 1.24 1.25 1.25 1.22 1.19 1.18 1.18 1.17 1.19 1.22 1.29 1.37
0.57 0.53 0.52 0.50 0.50 0.49 0.48 0.45 0.44 0.43 0.41 0.39 0.40 0.42 0.44 0.45 0.45 0.43 0.43 0.43 0.42 0.43 0.45 0.47 0.51 0.56 0.60 0.65 0.67 0.68 0.68 0.67 0.68 0.69 0.73 0.73 0.72 0.74 0.75 0.74 0.72 0.72 0.71 0.72 0.75 0.77 0.80 0.82 0.83 0.84 0.86 0.86 0.86 0.85 0.87 0.89 0.93 0.96 0.98 0.99 0.99 1.00 1.02 1.05 1.06 1.07 1.05 1.04 1.03 1.00 0.99 0.99 1.01 1.13 1.24 1.24 1.21 1.26 1.27 1.24 1.22 1.20 1.19 1.18 1.20 1.26 1.31
0.56 0.53 0.53 0.52 0.52 0.50 0.49 0.48 0.47 0.44 0.42 0.41 0.42 0.43 0.44 0.45 0.43 0.42 0.42 0.43 0.45 0.46 0.47 0.50 0.55 0.60 0.63 0.66 0.67 0.67 0.68 0.70 0.71 0.73 0.76 0.78 0.78 0.77 0.75 0.72 0.72 0.72 0.74 0.76 0.81 0.82 0.83 0.85 0.87 0.88 0.88 0.86 0.87 0.87 0.89 0.92 0.96 0.97 0.99 1.01 0.99 0.99 1.01 1.04 1.06 1.07 1.08 1.06 1.02 1.01 0.99 1.00 1.02 1.07 1.16 1.22 1.20 1.21 1.26 1.27 1.25 1.24 1.22 1.20 1.19 1.20 1.25
0.59 0.56 0.55 0.54 0.52 0.51 0.50 0.50 0.48 0.45 0.44 0.43 0.44 0.45 0.45 0.44 0.42 0.44 0.46 0.46 0.46 0.47 0.50 0.55 0.59 0.61 0.64 0.67 0.69 0.70 0.72 0.72 0.73 0.74 0.76 0.79 0.81 0.79 0.76 0.74 0.73 0.73 0.74 0.72 0.78 0.85 0.86 0.87 0.88 0.87 0.86 0.87 0.88 0.88 0.90 0.94 0.97 0.98 0.99 0.99 0.98 0.97 0.98 1.01 1.06 1.05 1.06 1.08 1.07 1.05 1.03 1.01 1.02 1.04 1.10 1.17 1.18 1.20 1.25 1.27 1.29 1.29 1.27 1.23 1.20 1.20 1.20
0.61 0.59 0.57 0.53 0.52 0.52 0.51 0.50 0.49 0.47 0.46 0.46 0.47 0.47 0.45 0.44 0.45 0.45 0.45 0.46 0.48 0.51 0.55 0.59 0.61 0.65 0.68 0.69 0.69 0.68 0.69 0.72 0.73 0.75 0.76 0.77 0.77 0.74 0.73 0.70 0.70 0.71 0.69 0.70 0.81 0.88 0.89 0.89 0.87 0.86 0.85 0.87 0.88 0.89 0.93 0.97 0.97 0.97 0.98 0.97 0.97 0.97 0.98 0.99 1.02 1.05 1.05 1.07 1.09 1.08 1.06 1.03 1.03 1.05 1.08 1.13 1.17 1.18 1.20 1.25 1.28 1.30 1.30 1.25 1.20 1.19 1.18
0.62 0.61 0.57 0.55 0.54 0.53 0.52 0.52 0.51 0.49 0.48 0.45 0.45 0.44 0.45 0.46 0.46 0.46 0.45 0.48 0.51 0.54 0.56 0.59 0.64 0.66 0.67 0.66 0.66 0.67 0.68 0.71 0.72 0.73 0.75 0.76 0.76 0.73 0.70 0.71 0.73 0.74 0.74 0.79 0.82 0.85 0.89 0.89 0.88 0.87 0.88 0.88 0.88 0.91 0.95 0.98 0.98 1.00 1.01 1.02 1.00 0.98 0.97 0.97 0.97 0.99 1.01 1.03 1.04 1.03 1.04 1.05 1.06 1.07 1.08 1.10 1.15 1.17 1.17 1.18 1.21 1.25 1.24 1.18 1.13 1.12 1.12
0.61 0.58 0.55 0.54 0.53 0.53 0.52 0.50 0.49 0.49 0.49 0.49 0.46 0.43 0.44 0.45 0.44 0.44 0.47 0.49 0.52 0.55 0.57 0.60 0.62 0.64 0.65 0.65 0.65 0.65 0.68 0.70 0.72 0.72 0.72 0.74 0.74 0.71 0.70 0.71 0.74 0.78 0.80 0.81 0.83 0.85 0.87 0.88 0.88 0.88 0.89 0.90 0.91 0.92 0.95 0.96 0.98 1.00 1.02 1.04 1.04 1.00 0.95 0.95 0.94 0.94 0.97 1.00 1.00 1.01 1.02 1.03 1.04 1.06 1.08 1.10 1.12 1.14 1.13 1.13 1.12 1.14 1.16 1.11 1.10 1.10 1.10
0.63 0.60 0.57 0.55 0.54 0.54 0.52 0.50 0.49 0.49 0.48 0.47 0.47 0.46 0.46 0.45 0.45 0.46 0.48 0.49 0.52 0.55 0.58 0.60 0.62 0.64 0.64 0.64 0.65 0.67 0.69 0.70 0.72 0.72 0.74 0.72 0.70 0.69 0.67 0.66 0.75 0.80 0.82 0.81 0.82 0.84 0.85 0.86 0.88 0.88 0.88 0.91 0.92 0.94 0.95 0.97 0.99 1.02 1.04 1.03 1.02 1.01 0.97 0.94 0.94 0.94 0.96 0.99 1.00 1.01 1.01 1.02 1.03 1.03 1.05 1.08 1.11 1.13 1.13 1.12 1.12 1.11 1.10 1.06 1.07 1.07 1.07
0.66 0.63 0.59 0.57 0.55 0.53 0.52 0.52 0.50 0.47 0.46 0.47 0.46 0.46 0.46 0.48 0.48 0.48 0.51 0.52 0.53 0.56 0.59 0.61 0.64 0.65 0.65 0.65 0.66 0.67 0.68 0.70 0.71 0.72 0.74 0.72 0.69 0.68 0.67 0.69 0.77 0.80 0.82 0.83 0.83 0.83 0.83 0.83 0.84 0.86 0.90 0.91 0.91 0.94 0.96 0.96 0.99 1.01 1.03 1.01 1.01 0.99 0.96 0.95 0.96 0.96 0.98 1.00 1.00 1.01 1.03 1.04 1.03 1.02 1.02 1.04 1.08 1.11 1.12 1.13 1.13 1.11 1.08 1.07 1.07 1.06 1.05
0.67 0.64 0.60 0.58 0.56 0.55 0.53 0.51 0.47 0.45 0.43 0.46 0.45 0.45 0.47 0.49 0.51 0.52 0.52 0.51 0.52 0.54 0.57 0.60 0.62 0.65 0.66 0.65 0.65 0.65 0.66 0.69 0.70 0.71 0.72 0.73 0.76 0.76 0.74 0.76 0.79 0.79 0.81 0.82 0.83 0.82 0.82 0.85 0.91 0.91 0.91 0.91 0.91 0.96 0.99 0.99 0.99 0.99 1.01 1.01 1.00 0.97 0.96 0.95 0.95 0.97 0.98 0.98 0.99 1.00 1.03 1.05 1.05 1.02 1.00 1.00 1.04 1.06 1.07 1.09 1.10 1.09 1.07 1.09 1.10 1.10 1.11
0.70 0.68 0.64 0.60 0.57 0.56 0.53 0.51 0.47 0.45 0.42 0.43 0.45 0.46 0.48 0.51 0.53 0.52 0.51 0.49 0.50 0.53 0.56 0.58 0.61 0.64 0.64 0.65 0.64 0.63 0.64 0.66 0.67 0.70 0.69 0.70 0.72 0.76 0.80 0.81 0.83 0.83 0.82 0.82 0.82 0.82 0.83 0.86 0.90 0.94 0.94 0.93 0.94 0.94 0.97 1.00 1.02 1.01 0.99 0.99 0.99 0.98 0.94 0.94 0.96 0.97 0.97 0.97 0.98 0.98 1.00 1.04 1.05 1.03 1.00 1.01 1.03 1.04 1.06 1.07 1.09 1.08 1.08 1.10 1.13 1.15 1.16
0.68 0.67 0.65 0.62 0.59 0.55 0.52 0.49 0.45 0.42 0.42 0.43 0.45 0.46 0.49 0.53 0.53 0.52 0.51 0.49 0.50 0.53 0.57 0.59 0.61 0.63 0.65 0.66 0.66 0.66 0.67 0.68 0.69 0.70 0.67 0.65 0.66 0.68 0.78 0.80 0.82 0.83 0.84 0.85 0.85 0.85 0.86 0.88 0.91 0.93 0.94 0.94 0.94 0.95 0.94 0.96 1.00 1.01 1.00 0.99 0.97 0.96 0.95 0.95 0.96 0.97 0.97 0.98 0.98 0.98 0.99 1.00 1.02 1.03 1.05 1.07 1.07 1.05 1.04 1.05 1.05 1.05 1.05 1.07 1.10 1.12 1.13
0.67 0.67 0.66 0.62 0.57 0.54 0.52 0.49 0.47 0.44 0.43 0.42 0.44 0.46 0.51 0.54 0.53 0.52 0.51 0.49 0.50 0.52 0.56 0.60 0.62 0.65 0.67 0.67 0.68 0.68 0.69 0.69 0.70 0.71 0.71 0.70 0.68 0.71 0.77 0.78 0.80 0.81 0.82 0.84 0.86 0.87 0.89 0.90 0.91 0.93 0.94 0.94 0.94 0.94 0.93 0.95 0.99 1.01 1.00 0.99 0.99 0.96 0.95 0.95 0.95 0.94 0.95 0.96 0.98 0.99 0.99 0.98 0.98 0.99 1.04 1.10 1.13 1.07 1.04 1.03 1.04 1.05 1.06 1.07 1.09 1.10 1.11
0.68 0.67 0.65 0.60 0.58 0.55 0.53 0.48 0.47 0.43 0.41 0.38 0.40 0.43 0.50 0.53 0.52 0.51 0.50 0.50 0.50 0.51 0.53 0.57 0.61 0.65 0.67 0.67 0.67 0.66 0.65 0.65 0.66 0.70 0.71 0.72 0.75 0.76 0.76 0.77 0.78 0.79 0.80 0.82 0.83 0.85 0.87 0.88 0.89 0.91 0.92 0.93 0.94 0.94 0.94 0.94 0.95 0.95 0.96 0.97 0.97 0.96 0.95 0.96 0.95 0.94 0.94 0.94 0.96 0.99 1.00 1.02 1.01 0.96 0.98 1.05 1.07 1.08 1.06 1.03 1.03 1.04 1.06 1.08 1.10 1.10 1.09
0.67 0.63 0.60 0.58 0.56 0.53 0.50 0.46 0.42 0.37 0.35 0.36 0.43 0.47 0.51 0.53 0.52 0.50 0.50 0.50 0.50 0.50 0.51 0.54 0.57 0.61 0.64 0.67 0.70 0.69 0.68 0.66 0.61 0.64 0.70 0.70 0.73 0.75 0.76 0.75 0.76 0.77 0.78 0.79 0.80 0.82 0.84 0.85 0.87 0.89 0.90 0.91 0.92 0.92 0.93 0.94 0.94 0.93 0.92 0.92 0.93 0.93 0.94 0.95 0.95 0.95 0.94 0.93 0.94 0.95 0.95 0.98 1.05 1.08 1.04 0.99 1.02 1.04 1.04 1.05 1.05 1.04 1.04 1.05 1.06 1.06 1.05
0.64 0.60 0.61 0.59 0.54 0.49 0.44 0.41 0.38 0.36 0.36 0.43 0.46 0.49 0.54 0.53 0.52 0.49 0.49 0.49 0.48 0.48 0.49 0.52 0.53 0.56 0.60 0.65 0.68 0.69 0.69 0.70 0.67 0.64 0.70 0.71 0.70 0.71 0.74 0.75 0.74 0.74 0.75 0.76 0.77 0.79 0.81 0.82 0.84 0.86 0.87 0.88 0.88 0.89 0.91 0.92 0.93 0.93 0.94 0.94 0.94 0.93 0.95 0.95 0.97 0.98 0.98 0.95 0.95 0.94 0.94 0.93 0.94 1.02 1.09 1.07 1.02 1.00 0.98 1.00 1.01 1.04 1.04 1.04 1.02 1.00 1.00
0.62 0.61 0.57 0.52 0.49 0.44 0.41 0.38 0.36 0.38 0.42 0.45 0.48 0.52 0.54 0.53 0.48 0.47 0.49 0.48 0.47 0.47 0.48 0.49 0.51 0.54 0.57 0.58 0.61 0.66 0.68 0.68 0.69 0.70 0.71 0.72 0.72 0.71 0.72 0.73 0.74 0.73 0.73 0.73 0.75 0.76 0.78 0.80 0.81 0.82 0.84 0.85 0.84 0.85 0.87 0.89 0.91 0.92 0.93 0.95 0.94 0.95 0.96 0.95 0.95 0.96 0.97 0.97 0.96 0.96 0.96 0.94 0.94 0.98 0.99 1.01 1.04 1.06 1.06 1.01 0.96 0.96 0.99 1.01 0.99 0.97 0.97
0.58 0.56 0.52 0.50 0.45 0.41 0.40 0.40 0.40 0.42 0.44 0.46 0.51 0.54 0.54 0.51 0.49 0.50 0.49 0.48 0.47 0.46 0.46 0.47 0.49 0.52 0.54 0.55 0.56 0.60 0.64 0.67 0.68 0.68 0.68 0.69 0.71 0.71 0.71 0.72 0.73 0.74 0.74 0.73 0.73 0.75 0.76 0.77 0.78 0.80 0.81 0.83 0.83 0.83 0.83 0.86 0.89 0.91 0.92 0.93 0.95 0.93 0.93 0.94 0.94 0.93 0.95 0.96 0.96 0.96 1.00 1.00 0.99 0.96 0.97 0.98 0.98 1.03 1.07 1.09 1.07 1.04 1.03 1.02 1.00 0.99 0.97
0.57 0.54 0.50 0.46 0.42 0.41 0.42 0.43 0.44 0.45 0.47 0.51 0.53 0.54 0.53 0.52 0.50 0.49 0.49 0.49 0.47 0.46 0.47 0.47 0.47 0.50 0.52 0.52 0.53 0.55 0.58 0.61 0.64 0.66 0.67 0.68 0.68 0.69 0.70 0.71 0.71 0.72 0.73 0.73 0.73 0.73 0.74 0.75 0.76 0.77 0.77 0.79 0.80 0.81 0.83 0.85 0.87 0.88 0.90 0.91 0.92 0.93 0.92 0.92 0.93 0.94 0.93 0.94 0.95 0.94 0.94 0.97 0.97 0.97 0.97 0.95 0.95 0.95 0.96 1.00 1.05 1.06 1.09 1.08 1.06 1.03 1.01
Wind_Speed
15 16 16 17 17 18 19 19 19 19 19 18 18 19 19 19 19 20 21 20 19 18 18 17 16 15 14 14 14 14 14 13 12 11 9 9 10 11 11 11 12 12 13 13 13 14 14 15 15 16 18 19 21 23 25 28 30 31 30 30 30 31 31 32 32 32 32 31 31 31 31 30 30 30 30 29 29 29 29 29 29 29 29 28 28 28 27
13 15 16 16 16 17 19 19 20 20 20 20 19 20 21 20 21 21 20 19 19 19 19 18 17 17 16 15 14 13 13 14 13 11 10 10 10 10 12 13 13 14 14 14 14 14 14 15 15 16 17 18 20 21 23 25 27 30 31 31 30 30 31 31 32 32 32 32 32 32 31 31 31 31 30 30 30 30 29 29 29 29 29 29 29 29 28
13 15 15 16 17 18 18 18 19 19 19 20 20 20 21 21 21 21 21 20 20 20 20 19 18 17 16 15 14 13 13 14 13 13 12 11 11 11 12 13 14 15 15 15 15 15 15 15 16 16 17 18 19 20 22 24 25 28 30 31 31 30 30 31 31 32 32 32 32 32 32 32 31 31 31 31 31 30 30 30 29 29 29 29 29 29 29
13 14 15 16 16 17 17 17 17 18 19 20 20 20 20 21 22 21 21 22 22 22 21 20 19 18 17 16 16 15 14 14 14 14 13 12 12 12 12 13 14 15 16 16 16 16 16 16 17 17 18 18 19 20 22 23 25 27 28 30 31 31 30 30 30 31 32 32 33 33 33 33 32 32 31 31 31 31 31 30 30 30 30 30 29 29 29
12 13 14 15 14 15 17 18 18 19 20 21 21 21 21 22 23 23 23 23 24 23 22 22 21 20 19 18 18 17 16 15 15 15 15 15 14 13 13 14 15 15 16 17 17 18 18 18 18 18 19 19 20 21 22 24 25 26 27 28 30 30 31 30 30 31 31 32 32 33 34 34 33 32 32 32 32 32 31 31 31 30 30 30 30 30 29
12 13 13 13 13 15 18 18 18 20 21 21 21 21 21 22 23 23 23 24 24 24 23 23 23 22 21 20 19 18 17 17 17 17 17 17 16 16 15 15 16 16 17 17 18 18 19 19 19 19 20 20 21 22 23 23 24 26 27 28 29 29 30 30 30 31 31 31 32 33 33 34 34 33 33 33 32 32 32 32 31 31 31 30 30 30 30
12 13 11 11 14 16 18 18 18 19 20 20 20 21 21 22 23 23 23 23 24 24 24 24 24 24 24 22 20 19 19 19 19 19 18 18 18 18 17 17 17 17 18 18 18 18 18 19 19 19 20 21 21 21 21 21 22 24 27 28 29 29 29 30 30 30 31 31 32 32 33 34 34 34 34 34 33 33 32 32 32 32 31 31 31 31 30
12 12 11 13 15 16 16 17 18 19 19 20 20 21 22 23 23 24 25 25 25 25 25 25 26 27 28 26 24 22 21 21 21 21 21 20 20 20 19 19 19 19 19 20 20 20 19 19 19 19 19 21 22 22 21 21 21 23 25 27 28 29 30 30 30 30 31 31 32 32 33 34 34 34 34 35 34 34 33 33 32 32 32 32 32 31 31
12 12 13 14 15 15 16 17 17 17 19 20 21 21 23 24 24 25 26 27 26 26 26 26 27 28 29 29 28 25 24 24 23 23 23 23 23 22 22 22 21 21 21 21 22 21 21 20 20 19 19 20 21 21 21 21 21 21 23 25 27 28 29 30 31 31 31 32 32 33 33 34 34 34 34 34 35 34 34 33 33 32 32 32 32 32 32
12 12 13 13 14 15 17 18 18 18 19 20 21 21 23 24 24 25 26 27 27 27 27 28 28 29 29 30 29 28 26 27 27 26 26 25 25 25 24 24 24 23 23 23 23 23 23 22 21 21 20 20 20 20 20 21 21 20 21 23 25 26 28 29 31 32 32 32 32 32 33 33 34 34 34 34 34 34 35 35 34 33 33 33 32 32 32
12 12 13 14 15 16 18 18 19 19 20 20 20 21 23 24 25 26 26 27 27 28 29 29 30 30 31 31 31 30 29 29 29 29 29 28 28 27 26 26 26 26 25 25 25 25 25 24 23 22 22 21 21 21 20 20 21 20 20 22 23 25 26 27 28 30 31 31 32 31 32 32 33 34 33 33 33 34 34 35 34 34 34 34 33 33 33
12 12 13 15 16 18 18 19 19 20 20 20 20 21 23 23 24 25 26 26 27 28 29 30 31 32 33 33 33 33 32 32 32 32 32 31 31 30 29 28 28 29 28 27 26 27 27 27 26 25 24 23 23 23 22 21 21 21 21 22 23 24 26 26 27 28 29 30 31 31 31 32 33 33 33 33 33 34 34 34 34 34 34 34 34 34 33
12 12 13 15 16 18 19 19 20 20 20 20 21 22 23 23 25 25 25 27 28 29 29 30 32 34 35 36 36 36 35 35 35 35 35 34 34 33 32 31 30 30 30 30 29 28 28 28 28 27 26 25 24 24 23 23 22 22 23 23 24 24 25 26 27 27 27 28 30 31 31 32 32 32 33 33 33 33 33 33 33 34 34 34 35 34 34
10 11 12 13 14 16 16 17 18 18 19 20 22 23 23 24 26 26 27 28 30 31 32 32 34 35 37 38 38 38 38 38 37 37 37 37 37 36 35 34 32 32 32 33 32 31 30 29 29 29 28 27 26 25 25 24 23 23 24 24 25 25 25 26 26 26 26 27 29 30 30 31 31 31 31 32 32 32 32 32 33 33 33 34 34 34 34
8 9 9 10 11 12 13 13 14 16 18 20 21 22 23 25 26 27 29 30 31 32 34 35 36 37 37 38 39 39 40 40 39 39 39 39 39 39 38 37 36 34 34 34 34 34 33 32 31 30 30 30 29 28 27 26 25 24 24 25 25 25 26 26 26 25 26 27 28 29 29 29 30 30 30 30 31 31 31 31 32 32 32 33 33 33 33
8 8 9 9 10 11 11 11 12 14 16 17 18 20 22 24 25 27 29 31 32 34 35 37 38 38 39 40 40 41 41 41 41 41 41 40 41 41 40 40 39 37 36 36 36 36 36 35 34 32 32 32 31 30 29 29 28 26 26 26 26 26 26 26 26 26 26 28 28 27 27 28 29 29 29 29 29 30 30 30 30 30 31 31 32 32 32
10 10 11 11 10 10 11 11 12 13 14 15 16 17 20 22 24 26 27 29 32 34 36 37 38 39 40 41 41 42 42 43 43 43 43 42 42 42 42 42 41 40 39 39 39 38 37 36 36 35 34 34 34 33 31 30 30 29 28 28 28 27 27 26 26 26 27 28 28 27 27 28 29 29 29 29 29 29 29 29 30 30 30 31 31 32 31
11 11 12 11 10 10 11 12 12 13 13 14 14 15 17 19 21 23 25 28 30 32 34 36 38 39 40 41 41 42 43 43 44 44 45 44 44 44 44 43 43 42 41 41 41 40 39 37 36 36 36 36 35 35 33 32 31 31 30 30 30 29 29 28 27 27 27 28 28 27 27 28 29 29 29 29 29 30 30 29 29 30 30 30 31 31 31
10 10 10 10 11 12 12 12 13 13 13 14 14 15 16 17 18 20 22 24 26 29 31 34 36 38 39 40 42 42 43 43 44 45 46 46 46 46 46 45 45 44 44 43 42 42 42 40 38 37 37 36 37 36 35 33 33 32 31 31 31 31 30 29 28 28 28 28 28 28 28 28 28 29 30 30 30 31 31 31 30 30 30 30 30 31 31
10 10 11 11 11 11 12 12 13 13 14 14 15 15 15 16 17 18 19 21 23 25 27 30 33 35 37 39 41 42 43 44 45 45 46 47 47 48 47 47 46 46 45 45 45 43 43 43 41 40 39 37 37 37 37 35 34 34 33 32 32 32 31 31 30 29 29 29 28 28 28 29 29 29 29 30 31 32 33 33 32 31 31 31 31 31 31
12 13 13 12 11 12 13 13 13 13 13 14 14 14 15 16 17 18 19 20 21 22 24 27 30 32 34 37 39 41 42 44 45 46 47 47 48 48 48 48 48 48 47 47 47 46 45 43 43 42 41 39 38 37 38 37 36 35 35 34 33 33 32 32 31 30 29 29 29 28 28 29 29 29 30 30 31 33 33 34 34 33 32 31 31 31 31
14 14 13 12 12 13 14 13 13 13 13 13 14 15 16 17 18 19 19 20 21 22 23 24 26 29 32 34 37 39 41 42 45 47 48 49 49 49 48 49 49 49 48 48 48 48 46 45 44 43 43 42 40 38 38 38 38 37 37 36 35 34 33 32 32 31 30 30 30 29 29 29 29 30 30 31 31 32 32 33 34 35 34 33 33 32 32
16 17 17 16 15 15 16 15 14 14 14 14 15 16 17 18 19 19 20 21 22 23 24 24 25 27 29 32 35 38 40 42 44 46 48 49 50 50 50 49 50 50 50 49 49 49 48 46 45 44 44 44 43 40 39 38 38 38 38 37 37 36 35 34 33 32 32 31 30 30 30 30 30 30 31 31 32 33 33 34 35 36 36 36 36 35 34
19 20 20 18 17 18 18 17 16 15 15 15 17 18 19 20 21 21 21 22 23 24 25 25 26 27 28 30 32 36 39 41 43 45 47 49 50 51 51 50 50 51 51 50 50 50 49 47 46 45 44 44 44 43 41 39 38 38 38 38 38 38 36 35 34 34 33 32 31 31 30 31 31 31 31 31 32 32 34 35 36 36 36 37 37 37 37
22 22 21 20 20 20 19 18 17 17 17 17 18 19 20 21 22 22 23 24 25 25 26 27 27 28 28 29 31 33 36 39 41 44 45 47 49 50 51 51 51 51 51 51 51 50 50 49 48 46 45 44 44 44 43 41 40 39 39 39 39 39 37 36 36 35 33 33 32 32 32 31 31 31 31 32 32 32 32 33 36 37 37 36 36 37 37
24 23 21 20 20 20 19 18 18 19 18 19 19 20 21 22 22 23 24 24 25 26 27 28 29 29 29 30 30 32 34 36 39 42 43 45 47 49 51 52 52 52 52 52 52 51 51 50 49 48 47 45 44 43 43 42 41 40 40 40 40 40 39 38 37 36 34 33 33 33 33 32 31 31 31 32 32 32 31 31 33 35 37 37 36 37 37
24 23 22 21 21 21 21 20 20 19 19 19 20 21 21 22 23 23 24 25 26 27 28 29 29 30 30 31 31 32 33 34 36 39 41 43 46 48 50 51 53 53 53 53 53 53 52 52 51 50 49 47 45 44 43 43 42 41 41 40 41 41 40 39 38 37 36 35 35 35 34 33 32 32 31 31 31 32 32 31 31 32 34 35 36 36 37
23 23 22 22 22 22 22 21 19 19 19 20 20 21 21 22 22 23 24 25 26 27 28 28 29 30 31 31 31 31 32 33 34 36 39 41 44 46 48 50 51 52 53 54 54 53 53 52 51 51 51 49 47 45 44 43 42 42 42 42 41 42 42 41 39 38 37 36 37 37 37 35 34 33 33 33 32 32 32 32 31 31 32 33 33 34 35
22 22 22 22 21 20 19 18 18 18 20 20 21 21 22 22 23 24 25 26 27 27 28 28 29 30 31 31 31 31 31 32 33 34 36 39 41 43 45 47 50 51 52 53 54 54 53 52 52 51 50 50 49 47 45 44 43 42 43 43 43 42 42 42 41 40 39 39 38 39 39 38 37 36 35 34 34 33 33 32 32 32 32 32 32 32 33
19 19 19 19 18 17 17 17 17 18 19 20 21 21 22 22 23 25 26 26 27 27 28 28 29 29 30 31 31 31 31 32 33 34 34 36 38 40 42 44 46 48 50 52 53 53 53 52 52 51 50 49 49 48 46 45 44 44 43 44 44 43 43 42 42 41 41 41 40 40 40 40 39 38 37 36 35 35 34 34 33 33 33 33 33 33 33
16 16 16 16 16 16 17 17 17 18 19 20 20 21 22 23 24 25 26 26 26 27 28 28 28 29 29 30 30 31 31 32 32 32 32 32 33 36 39 42 44 45 47 49 50 51 52 52 52 51 50 49 49 49 48 46 46 45 44 44 44 44 43 43 42 41 41 41 41 41 41 41 41 39 39 38 37 36 36 35 35 35 35 35 35 35 34
14 14 14 15 15 15 16 16 16 18 19 19 20 22 23 23 24 25 25 26 26 27 27 27 28 28 28 28 29 30 30 30 30 30 30 30 31 33 35 38 41 42 44 45 48 49 50 51 51 51 50 49 49 49 49 48 47 46 46 45 44 44 43 43 43 42 41 41 40 40 41 41 42 41 40 39 39 38 37 37 37 36 36 37 37 36 36
13 13 13 14 14 14 15 16 16 17 18 19 20 22 22 23 23 24 25 26 26 26 26 26 26 26 26 27 27 28 28 27 27 27 28 29 30 31 31 33 36 39 40 42 44 46 48 49 50 50 50 49 48 48 48 49 48 47 47 46 45 43 43 44 43 43 42 42 41 40 40 41 42 42 42 41 40 40 39 38 38 38 38 38 39 38 38
13 13 14 14 13 14 15 15 16 17 18 19 20 21 21 22 23 24 25 25 25 25 25 25 24 24 24 25 25 25 24 24 24 25 27 27 27 27 28 29 30 33 36 38 41 43 44 46 48 49 49 49 48 48 48 48 48 48 47 47 46 45 44 44 43 44 43 43 42 41 41 40 41 42 42 42 42 42 41 40 40 39 39 39 40 39 39
13 13 13 13 13 13 14 14 15 17 18 19 19 19 20 22 23 24 24 24 24 23 23 23 23 22 22 22 22 22 21 21 22 23 23 23 23 23 24 25 26 28 31 33 36 38 40 42 44 46 47 48 48 48 48 48 48 47 47 47 46 46 45 44 43 43 43 43 42 42 41 41 40 41 41 41 42 43 42 42 41 40 40 40 40 40 40
13 13 13 13 13 13 14 15 16 16 17 17 18 19 20 22 23 23 23 23 22 22 22 21 21 20 20 20 20 19 18 19 20 20 18 18 19 20 21 22 24 25 26 28 31 33 36 39 40 42 44 45 46 47 47 47 47 46 46 46 46 46 45 44 43 42 42 42 42 42 41 41 41 41 40 41 41 42 42 42 42 41 41 41 41 40 40
13 13 13 13 14 14 14 15 16 16 16 17 18 19 20 21 22 22 21 21 21 21 20 19 19 19 18 18 17 16 16 16 17 17 16 15 15 16 18 19 21 22 23 25 27 29 32 35 37 39 41 42 44 45 46 46 46 46 46 46 45 45 44 43 42 41 41 41 41 41 41 40 40 40 40 40 40 40 40 40 41 41 41 41 40 39 38
14 14 14 13 14 14 15 15 15 15 16 16 17 18 19 20 21 20 20 20 20 19 18 17 17 17 17 16 15 15 15 14 15 14 14 14 14 14 15 17 19 21 22 23 25 27 29 32 34 36 38 40 42 43 44 45 45 45 45 45 44 44 43 43 43 42 41 40 40 40 39 39 39 39 39 39 38 38 38 37 37 38 38 38 37 36 35
14 14 14 14 14 14 14 14 14 15 15 16 17 18 19 19 19 19 19 19 19 18 17 16 16 15 15 15 14 13 13 14 13 13 13 13 13 14 14 15 17 20 22 23 24 25 27 29 31 34 36 38 39 40 42 43 43 43 43 43 43 43 43 42 43 42 41 40 39 39 38 37 37 37 37 37 37 36 36 35 34 35 35 35 35 34 32
16 15 15 14 14 13 13 13 14 14 15 15 16 17 18 18 18 18 18 18 18 16 15 15 14 14 14 14 13 12 12 12 12 13 12 12 12 13 13 14 15 16 19 21 23 25 26 27 28 31 33 35 37 38 39 41 41 41 42 42 42 42 42 42 42 42 41 41 40 39 37 36 35 35 36 36 35 35 35 34 33 33 33 33 33 33 32
17 16 15 14 13 13 13 13 14 14 14 14 15 16 17 17 16 17 17 17 16 15 14 13 13 13 13 12 12 11 11 11 11 11 11 11 11 10 10 11 12 13 15 17 19 22 24 25 26 27 30 32 34 35 37 38 39 39 39 40 41 41 41 41 40 40 41 40 40 39 38 36 35 34 34 34 34 34 34 33 33 32 32 32 33 32 32
19 17 15 14 13 13 12 13 13 13 13 13 14 15 16 15 15 15 15 15 14 14 13 12 12 12 12 11 11 10 10 10 10 10 9 8 8 8 8 9 10 11 12 13 15 18 20 22 22 24 26 28 30 31 33 36 37 37 37 37 39 40 40 39 39 39 39 39 39 38 37 36 35 34 33 33 33 33 32 32 32 32 32 32 32 32 32
20 18 16 14 13 12 12 12 12 11 12 13 14 14 14 14 14 13 13 14 13 12 11 11 11 11 11 11 10 9 9 9 10 9 8 7 7 7 8 8 9 9 10 11 12 14 16 17 18 19 20 23 25 27 30 32 33 33 34 34 36 37 37 37 37 37 37 37 37 36 36 35 35 34 33 33 32 32 31 31 31 31 32 32 31 31 31
19 18 16 14 13 12 11 10 10 10 11 12 13 12 12 12 12 12 13 13 12 11 10 9 9 10 10 10 9 8 9 9 9 8 7 6 6 7 7 8 8 8 7 8 9 11 12 13 14 15 16 17 19 22 25 28 29 30 31 31 32 33 34 34 35 35 35 35 35 34 34 34 34 34 33 32 32 31 31 30 30 31 31 31 30 30 29
18 18 16 14 13 11 10 9 9 10 11 11 11 11 11 11 11 11 11 11 11 10 9 8 8 9 10 10 9 8 8 8 8 8 8 7 7 7 7 7 6 5 5 5 7 8 10 10 11 12 14 15 15 17 20 22 24 25 27 28 29 30 30 31 31 32 32 32 33 32 32 33 33 33 32 32 32 31 30 30 29 29 29 29 29 28 27
18 18 16 14 13 11 10 9 9 9 10 9 9 9 9 9 10 10 10 10 9 9 8 7 7 8 9 9 9 8 8 7 7 8 8 8 7 7 7 6 6 5 4 4 4 6 7 9 9 9 11 12 13 15 17 19 19 20 21 23 25 27 27 28 28 29 29 30 30 30 30 31 31 32 32 32 31 31 30 29 29 28 28 27 27 26 26
17 17 16 14 12 10 9 8 8 8 8 8 8 8 8 8 8 8 9 9 8 8 7 7 7 7 7 8 9 8 8 7 7 8 8 8 8 8 7 6 5 4 3 2 3 3 4 6 7 8 9 9 10 12 14 16 17 18 18 18 20 23 24 25 25 26 26 27 28 28 28 28 28 29 30 31 31 30 30 29 28 27 27 26 25 24 24
17 16 14 13 11 9 8 7 7 7 7 6 6 6 6 6 6 7 8 8 8 8 7 7 7 7 7 7 8 8 8 8 8 8 8 9 9 8 7 6 5 4 3 2 1 2 2 3 4 5 7 8 8 9 11 12 14 15 15 16 17 19 21 22 23 23 23 24 25 26 26 26 25 25 27 28 29 28 28 27 27 27 26 25 24 23 22
17 15 13 11 10 8 7 6 6 5 5 4 4 4 4 4 5 6 7 8 8 8 7 6 6 6 6 7 7 7 7 8 7 7 8 8 9 8 8 7 6 5 4 2 1 0 1 1 2 3 4 6 7 8 9 11 12 12 13 13 14 15 17 18 20 20 21 21 21 22 23 25 24 23 23 24 25 25 25 25 25 25 25 25 24 23 22
17 14 12 11 9 7 6 5 4 4 3 3 3 2 2 3 4 6 7 7 7 8 7 6 6 6 7 7 6 7 7 7 7 7 7 7 8 8 8 7 6 5 5 3 2 2 1 1 1 2 3 5 6 7 8 9 10 11 12 12 12 13 14 15 16 18 18 19 19 18 19 22 23 24 23 23 23 23 23 23 23 24 24 24 24 23 22
16 13 11 10 8 6 4 4 3 2 2 1 1 1 2 3 4 5 6 7 7 8 8 7 7 7 7 7 7 6 6 6 7 7 7 7 8 8 8 7 7 6 5 4 3 2 2 1 1 1 2 4 6 7 8 8 9 9 11 11 11 11 12 13 14 15 16 17 17 16 16 17 19 21 23 23 23 22 21 21 21 21 22 23 23 23 22
14 12 10 8 6 4 3 2 2 2 1 1 1 1 2 3 3 4 5 7 8 8 8 8 8 7 7 7 7 6 6 6 6 6 6 7 7 7 7 7 7 6 5 4 3 2 2 2 2 2 2 4 5 6 7 7 8 9 9 10 9 9 10 11 11 12 13 14 16 16 15 14 15 16 18 20 22 22 21 21 20 19 19 19 20 20 21
Wind_Direction
227 225 227 230 229 228 230 229 229 231 231 229 225 225 223 218 218 222 224 223 221 224 227 229 232 232 231 234 237 239 239 239 239 237 231 225 224 227 228 229 228 227 228 231 232 232 232 230 230 230 229 228 227 226 226 226 224 223 223 223 223 223 223 223 223 224 224 225 226 226 227 227 227 227 227 227 228 228 228 229 230 231 232 233 233 234 235
227 230 230 230 231 233 233 232 231 232 232 230 228 228 227 224 222 223 222 221 223 226 227 227 231 232 232 234 236 239 241 240 238 235 233 232 231 227 224 225 227 227 229 231 233 233 233 234 234 234 233 233 232 230 230 229 227 225 224 223 223 224 224 224 224 225 225 226 227 227 228 228 228 228 228 228 229 229 229 229 230 231 232 233 234 235 236
228 232 233 233 233 232 233 234 234 233 233 231 229 229 229 228 227 226 223 222 226 229 228 227 228 231 232 234 238 239 238 237 237 236 236 237 237 234 230 226 225 226 227 230 233 234 235 238 238 238 237 237 237 235 233 231 230 227 225 224 224 224 225 225 225 226 226 227 228 228 229 230 230 230 230 229 230 230 230 230 231 231 232 233 234 235 236
228 231 234 238 236 231 230 233 235 236 233 230 230 230 229 228 228 228 227 226 228 231 229 228 229 230 231 234 237 238 238 237 236 237 239 240 240 239 237 234 231 229 229 229 231 233 235 238 239 241 242 242 242 241 238 234 230 228 227 225 225 225 226 227 227 227 227 227 228 228 229 230 231 231 231 231 231 231 231 231 231 232 232 233 234 235 236
228 235 239 239 235 230 230 231 232 233 232 231 232 231 231 230 230 229 229 229 230 232 231 230 230 229 229 232 235 236 238 239 238 238 240 242 243 242 240 239 237 235 234 232 230 232 234 236 237 239 241 243 244 244 241 236 231 229 228 227 226 227 227 228 228 228 228 228 228 229 229 230 231 232 232 232 232 232 232 232 232 233 233 234 234 235 236
234 242 243 237 232 231 231 231 231 231 232 233 233 231 232 234 233 230 230 231 233 234 232 231 230 229 228 230 232 233 236 238 239 240 241 242 243 243 242 241 239 238 239 237 234 235 236 237 237 237 237 239 242 243 242 238 233 231 230 229 229 229 229 229 229 228 229 229 229 229 229 230 231 232 232 232 233 233 233 233 233 234 234 234 235 235 236
241 246 244 236 234 233 231 234 236 234 233 233 231 230 232 235 235 232 231 233 234 235 235 235 234 231 229 229 232 234 235 236 238 240 242 242 242 242 242 242 240 240 241 240 239 239 240 241 241 240 240 240 243 246 247 243 239 235 232 231 231 231 231 230 229 229 230 230 230 230 230 230 231 231 232 232 233 234 234 234 234 235 235 236 236 236 237
245 247 243 236 237 238 239 242 243 239 236 235 233 232 234 235 235 234 233 234 235 236 237 239 239 236 233 233 235 236 237 238 239 240 241 241 241 241 242 243 243 243 242 240 240 241 242 242 243 244 246 246 246 248 248 245 243 239 235 233 231 231 232 231 231 232 231 231 231 232 232 232 232 232 233 233 233 234 234 235 235 236 237 237 237 237 238
243 243 244 244 245 246 245 244 242 238 237 236 233 233 236 237 236 236 236 236 237 237 238 241 243 241 237 235 236 238 240 242 242 241 241 241 243 243 244 244 244 244 243 241 240 240 241 242 243 246 249 249 248 248 246 244 243 241 238 236 233 233 233 233 233 234 233 232 233 234 233 232 233 233 234 234 234 234 234 235 235 236 237 238 238 238 238
244 243 247 248 247 246 242 239 240 240 239 237 235 236 239 239 239 240 238 238 240 240 240 243 244 242 238 236 237 240 243 245 245 245 244 244 245 246 246 246 246 245 245 244 242 240 241 243 244 247 249 249 248 248 247 245 244 244 242 239 237 236 237 237 236 235 235 234 234 235 235 233 233 233 234 234 234 234 234 235 235 236 237 238 239 239 239
248 244 244 242 242 243 241 239 241 244 243 241 241 243 242 241 242 243 240 240 242 242 242 244 243 241 238 238 240 243 246 246 246 247 247 247 248 248 248 248 247 247 247 246 244 243 243 243 245 247 248 249 249 248 247 246 244 244 243 241 238 238 239 239 238 236 235 235 234 235 235 234 234 234 234 234 234 234 234 235 236 237 238 239 240 240 240
247 244 245 246 246 247 245 241 243 245 244 243 245 246 244 242 244 245 243 243 244 244 244 244 241 239 239 240 243 246 247 247 247 247 247 248 249 250 250 250 249 248 247 246 245 244 245 245 246 247 247 248 249 248 247 246 245 244 243 242 240 239 238 238 238 236 235 235 234 234 235 234 233 234 234 234 234 234 234 235 236 238 239 239 240 241 241
249 246 249 253 254 252 247 244 245 246 244 244 244 244 243 244 245 246 245 246 246 246 247 245 242 240 241 243 245 247 247 247 247 248 248 249 249 250 250 251 251 250 248 246 245 244 245 246 247 247 247 247 248 247 247 247 247 247 247 244 242 241 240 238 238 236 235 235 235 234 234 233 232 232 233 233 234 234 235 236 237 238 239 240 240 241 241
253 251 254 260 262 255 245 242 247 247 244 244 245 244 245 247 248 248 249 249 249 248 249 248 246 244 244 245 246 247 247 247 247 248 249 250 250 250 250 251 251 251 250 249 246 245 245 246 246 247 247 247 246 246 246 246 247 249 250 247 244 243 241 240 239 237 235 235 236 235 233 231 230 230 231 232 233 234 235 236 237 238 239 240 241 241 242
251 254 255 259 263 254 241 241 250 249 245 246 248 248 248 249 250 252 252 252 251 251 250 250 250 250 248 247 246 246 247 247 248 248 249 250 251 251 251 251 251 252 252 251 249 247 247 248 247 247 247 247 247 246 245 246 247 248 248 247 246 246 244 243 243 242 239 238 238 236 233 230 229 229 230 231 232 234 235 235 236 237 238 239 240 241 242
249 251 251 253 256 249 239 241 250 250 250 253 254 253 252 252 253 254 254 254 254 253 252 252 252 252 252 251 250 248 247 247 248 248 249 249 250 251 251 251 252 252 252 252 252 251 249 249 248 247 246 247 247 247 246 246 246 247 247 246 247 247 247 247 246 245 243 242 241 239 236 232 231 231 232 232 232 233 234 235 236 236 237 238 239 240 240
252 252 252 257 261 250 240 244 251 255 258 260 259 257 257 257 257 257 256 257 256 255 254 254 253 253 252 252 252 251 249 248 248 248 249 249 249 250 250 251 251 251 251 251 252 252 251 249 248 247 245 246 247 247 247 246 246 247 247 246 246 247 248 248 248 247 246 245 243 242 239 235 233 233 234 234 233 233 234 234 235 236 237 238 239 239 240
264 263 257 255 257 252 246 251 258 263 265 264 261 261 262 263 263 262 261 260 259 258 256 255 254 254 253 252 252 252 251 250 249 248 249 248 248 249 249 250 250 250 250 250 250 251 251 250 248 247 245 245 246 246 246 246 246 247 247 247 245 245 247 248 249 249 248 246 246 244 241 238 236 235 235 235 235 235 235 234 235 236 238 238 239 239 239
265 267 261 254 254 254 253 256 262 265 266 265 264 265 266 267 268 268 267 265 263 261 259 257 256 255 254 253 253 252 251 251 249 249 248 248 248 249 249 250 249 249 248 248 248 249 250 250 249 248 246 245 245 245 245 246 246 246 247 247 245 244 246 247 248 249 249 247 247 245 243 241 239 237 236 235 235 235 235 235 236 237 238 239 239 239 239
259 265 265 262 262 262 260 261 265 267 268 269 270 270 270 271 273 273 272 270 268 265 263 260 259 258 257 255 254 253 252 251 250 249 249 249 249 249 249 249 249 248 247 247 247 247 248 249 250 249 247 246 246 245 244 246 246 245 246 246 245 245 246 246 246 248 249 248 247 245 244 243 242 240 237 237 237 237 236 236 237 237 238 239 238 238 238
267 271 269 265 267 269 267 265 268 271 271 271 272 274 275 276 277 277 276 276 274 272 269 265 262 260 259 258 256 255 253 252 252 251 250 250 249 249 248 248 248 248 247 246 246 246 246 247 249 249 248 247 246 245 244 245 245 246 246 246 245 245 245 244 245 247 247 247 246 245 243 242 243 242 240 239 239 239 238 237 236 237 238 239 239 238 239
266 265 260 257 261 267 268 267 269 272 273 273 274 277 280 280 280 281 280 280 279 277 275 272 268 264 262 260 259 258 256 254 253 252 251 250 250 249 248 248 248 248 247 246 245 245 244 245 246 247 247 247 246 245 244 244 245 245 246 245 244 244 244 243 244 246 246 246 246 245 243 242 243 242 242 241 240 239 238 238 236 237 239 240 240 240 240
260 259 257 255 258 265 269 269 270 274 276 276 277 280 282 282 282 282 282 282 282 280 278 277 274 271 268 265 262 260 258 258 256 254 253 251 250 249 248 247 247 247 247 246 245 244 243 243 244 245 246 246 246 245 244 244 245 245 245 244 243 243 243 243 244 245 246 246 246 245 244 242 242 242 242 242 242 240 240 239 238 238 239 240 241 241 241
259 261 260 257 258 264 269 269 270 274 278 279 281 283 284 284 284 283 282 282 282 281 280 279 277 275 274 271 267 263 261 260 258 257 255 253 251 249 248 247 246 247 247 245 244 243 243 242 243 244 244 244 245 244 244 245 246 245 245 244 242 242 242 243 243 244 245 245 246 246 244 243 243 242 242 243 243 243 242 241 240 239 239 240 241 241 242
259 261 261 259 259 264 267 269 270 274 278 281 284 285 286 286 285 284 283 282 281 280 280 280 278 277 276 276 274 270 265 262 260 258 256 254 251 250 248 247 246 246 246 245 244 243 242 242 242 242 242 243 243 243 243 244 246 246 245 244 242 241 241 241 242 242 243 245 245 245 245 244 243 242 242 242 243 244 244 242 241 239 239 240 242 242 242
258 260 260 261 262 263 264 267 271 274 278 281 283 285 286 287 287 287 286 284 283 281 280 280 279 278 277 277 276 275 271 266 263 260 257 255 252 250 249 248 247 246 245 245 244 243 242 242 241 241 241 241 241 241 242 243 245 246 246 244 242 241 240 240 241 241 242 244 245 245 244 245 244 243 242 241 242 243 244 244 242 240 239 240 242 243 243
258 257 257 259 262 263 262 263 267 273 278 279 281 284 287 288 289 290 290 288 287 284 282 281 279 279 279 278 277 277 275 271 267 263 259 257 254 251 250 249 248 246 245 244 244 243 242 241 241 241 241 240 239 239 241 242 244 245 245 244 242 241 240 240 241 241 242 245 246 245 245 245 245 243 241 241 241 242 243 243 242 241 241 241 242 242 243
256 256 255 257 260 261 261 261 265 273 278 279 280 283 287 288 290 291 292 292 291 289 286 283 281 280 280 279 278 277 276 274 270 266 263 259 256 253 250 249 248 247 245 244 243 242 241 241 241 241 241 240 239 239 239 241 242 243 244 244 243 241 240 240 241 242 243 245 246 246 245 245 245 244 243 242 242 243 243 242 242 242 242 242 242 242 243
255 255 256 257 259 259 258 260 266 273 277 279 281 284 287 289 291 293 293 293 293 292 290 286 283 280 280 279 278 277 276 275 274 271 267 263 258 254 251 249 247 246 245 243 241 241 240 240 240 240 240 240 239 239 238 239 240 241 242 243 243 242 241 241 242 242 243 245 246 245 245 245 245 245 245 244 243 243 242 242 241 242 242 243 243 243 244
257 255 254 254 254 253 255 261 268 272 276 279 282 285 288 290 292 294 295 295 294 293 291 288 285 282 280 279 278 277 277 277 276 275 271 267 261 256 252 249 247 245 244 242 241 240 239 239 239 239 239 239 239 239 239 239 239 239 240 241 242 242 242 242 242 242 242 243 244 245 244 244 244 245 245 244 243 242 242 242 242 243 243 244 244 244 245
257 254 251 250 250 252 257 264 269 273 277 281 284 287 290 292 294 295 296 296 295 294 292 290 288 284 282 280 279 279 279 279 278 276 272 268 263 258 253 250 247 245 243 241 240 239 238 238 238 239 239 238 239 239 239 239 239 239 239 239 240 241 242 241 241 241 241 242 244 245 245 244 244 244 244 244 243 242 243 243 244 244 244 245 245 245 246
254 254 253 252 252 255 261 266 270 275 280 285 287 290 292 293 295 296 297 297 297 295 293 292 290 287 284 282 281 282 281 280 278 275 272 268 264 260 255 251 247 245 242 240 239 237 237 237 238 238 238 238 238 239 239 239 239 239 239 239 239 240 240 240 240 240 240 242 244 245 245 245 244 244 244 244 243 243 243 244 245 245 245 245 245 246 247
251 252 252 251 253 258 263 267 273 279 284 288 290 292 293 294 295 297 298 298 298 296 295 293 292 290 288 286 284 283 281 279 277 275 272 269 266 261 257 252 248 245 242 239 237 236 236 237 237 237 237 238 238 238 238 239 239 239 239 239 238 238 238 239 239 239 240 242 243 244 245 246 245 244 244 244 244 243 243 244 245 246 246 246 246 247 248
249 250 252 253 256 261 264 269 277 283 289 292 293 293 295 297 298 299 299 299 299 297 296 295 295 293 292 290 288 286 283 281 280 279 275 271 266 261 257 253 249 246 242 239 236 235 235 235 235 236 236 237 238 238 238 238 238 239 240 240 239 238 238 238 238 239 240 241 243 244 245 246 246 245 245 245 245 244 244 245 246 246 247 247 247 248 248
253 255 256 256 258 261 266 274 282 287 290 292 294 296 298 300 301 302 302 301 300 299 299 298 297 296 295 293 291 289 287 287 288 287 280 271 265 260 256 252 249 246 242 238 235 234 234 234 234 235 236 237 238 238 238 238 238 238 239 239 239 239 239 238 238 239 240 241 243 244 244 245 245 246 246 246 245 245 246 246 247 247 247 248 248 249 249
253 255 258 259 260 264 271 280 285 287 290 292 295 298 301 303 305 305 305 304 303 302 301 301 300 299 299 297 295 292 290 291 294 296 289 276 266 260 255 251 249 246 241 237 234 233 233 233 234 235 235 236 237 237 238 238 238 238 238 238 238 239 239 239 239 239 240 242 243 244 245 245 245 245 245 246 246 246 246 247 247 247 248 248 248 249 250
254 255 258 261 264 268 275 281 285 287 290 294 297 300 303 306 308 309 308 307 306 305 304 304 303 302 302 300 296 293 292 292 295 298 295 285 273 262 254 250 248 245 241 238 236 235 234 234 235 235 235 235 236 237 238 238 238 238 238 237 238 238 239 239 239 239 240 241 243 244 245 245 246 245 244 245 246 246 247 248 248 248 248 248 248 249 251
258 258 259 261 265 270 276 282 285 288 292 296 300 303 306 309 310 311 311 310 310 309 308 307 305 304 304 302 298 294 293 295 297 298 297 292 282 271 261 255 251 247 244 241 239 237 237 237 236 236 236 236 236 236 237 237 237 237 237 237 237 237 238 238 238 239 240 240 242 243 244 244 245 245 244 244 245 246 247 248 249 248 248 247 247 248 250
257 258 260 263 267 271 277 283 286 288 293 297 301 305 310 312 313 314 314 313 313 312 311 309 308 307 307 305 301 297 295 296 298 301 300 295 287 279 271 265 258 251 247 243 240 238 238 238 237 236 236 236 235 235 235 236 236 236 236 236 237 237 237 237 238 239 240 240 241 242 243 243 243 243 243 243 244 244 245 246 247 247 246 244 244 246 249
255 256 258 261 265 270 276 281 285 289 293 298 302 307 312 315 316 316 316 316 316 316 315 313 310 310 312 310 305 300 298 298 299 301 300 296 291 284 276 272 266 258 249 244 240 238 238 238 236 236 235 235 234 234 234 234 234 234 235 236 236 236 236 237 238 238 239 239 240 240 241 242 241 241 241 241 242 242 243 244 245 245 244 243 242 244 248
254 254 254 256 262 268 273 279 284 289 293 298 304 310 314 316 318 318 318 318 319 320 320 318 314 314 317 317 312 305 301 300 301 302 301 299 295 287 278 274 272 264 255 248 243 240 238 237 236 236 235 234 234 233 233 232 232 233 234 235 236 235 235 235 236 237 237 238 238 239 239 239 239 239 239 239 240 240 241 242 242 242 242 241 241 243 246
251 249 249 253 260 266 271 278 283 288 293 300 306 311 315 319 320 320 319 321 321 322 323 322 320 321 322 320 315 312 309 307 306 307 306 303 299 292 284 279 275 268 261 256 251 244 239 236 235 237 236 234 232 232 232 230 230 231 232 233 234 234 233 233 234 234 235 236 236 237 236 236 236 236 236 236 237 238 238 239 239 239 239 239 239 241 244
246 244 245 249 255 262 268 275 281 288 295 303 309 312 316 320 322 322 322 324 323 323 326 328 328 329 329 326 324 322 320 317 316 314 310 306 303 300 296 291 284 275 266 259 252 245 239 235 235 236 235 232 230 230 230 230 229 229 230 231 231 231 231 231 232 232 233 233 234 235 234 233 233 234 234 234 235 235 236 237 237 236 236 237 238 240 242
239 238 240 243 249 257 264 270 279 289 298 305 311 313 317 321 324 326 327 328 326 327 332 336 337 337 338 338 338 337 333 331 330 327 320 312 307 306 305 302 295 285 273 259 247 239 235 235 235 233 229 227 227 227 228 228 227 227 227 228 228 228 229 229 229 230 230 231 232 233 232 231 231 232 232 232 232 233 234 235 235 235 234 235 236 238 239
232 232 235 237 241 250 258 265 276 289 298 305 312 315 317 322 327 330 332 333 331 331 335 340 343 344 345 345 346 346 347 347 346 342 338 331 321 314 311 308 301 292 280 264 250 239 232 231 232 229 224 223 225 226 224 223 224 224 224 224 225 226 226 226 226 227 228 228 229 230 230 230 230 230 229 228 229 230 231 232 233 232 232 233 234 235 236
226 226 229 231 235 243 252 261 275 288 297 304 311 315 317 322 329 333 337 339 338 336 336 339 344 347 349 352 354 355 356 356 355 352 348 344 337 329 324 320 313 303 288 269 256 244 231 225 224 223 220 220 223 223 221 218 218 219 219 220 221 222 222 223 223 225 226 227 227 228 228 228 229 228 227 226 226 227 228 229 230 230 230 230 231 232 233
218 218 222 226 229 236 246 258 273 287 296 302 307 311 317 325 333 339 344 347 347 343 340 343 348 352 356 2 6 5 2 1 3 5 3 359 354 349 343 338 332 325 308 274 254 242 226 215 214 215 214 213 214 215 214 213 213 214 215 216 217 217 218 219 221 223 224 225 226 227 227 227 227 226 224 224 224 225 226 226 227 226 226 226 226 228 229
209 211 216 219 223 230 239 253 270 285 294 298 302 308 318 329 341 348 353 356 356 353 348 347 350 354 357 2 7 8 7 5 7 10 11 9 6 2 360 358 357 355 347 316 266 243 220 204 201 206 209 209 209 208 206 205 205 207 210 212 214 214 215 216 218 220 221 223 224 225 226 225 224 221 220 220 221 222 223 223 223 223 222 222 222 224 225
202 204 208 211 215 222 233 250 270 283 288 288 292 302 317 335 349 356 360 3 3 2 359 354 350 351 353 356 359 4 7 8 8 9 11 13 14 15 16 17 16 17 19 24 35 208 214 201 188 186 194 200 204 204 201 200 198 198 199 201 205 207 208 210 212 215 217 219 220 221 223 223 220 216 214 215 216 218 219 219 219 219 219 219 220 221 223
192 194 199 203 208 216 230 249 264 269 266 267 275 286 309 334 346 353 359 6 9 8 6 0 353 349 350 352 354 356 0 5 9 11 13 15 18 22 25 28 30 32 36 46 64 75 72 78 138 171 184 193 197 196 192 191 192 192 192 193 196 199 201 203 205 207 209 211 213 215 216 216 215 212 211 212 212 213 213 215 215 215 215 217 219 221 223
182 186 192 196 200 208 223 239 243 237 234 246 257 267 303 331 342 350 359 6 8 8 6 2 357 352 351 351 353 353 356 1 6 10 14 17 20 23 26 30 34 38 42 47 56 69 76 74 82 133 166 176 181 181 179 179 181 184 185 187 190 194 196 197 199 201 202 203 204 204 203 202 203 205 207 208 209 208 208 208 209 209 210 214 217 219 221
173 176 179 180 183 189 202 213 206 195 201 229 250 272 310 331 343 351 357 0 2 2 360 357 354 352 349 347 347 348 352 356 359 3 8 14 19 22 24 27 30 34 39 44 48 54 69 77 79 99 143 162 168 170 172 173 174 175 175 175 178 182 184 186 189 192 194 194 194 193 190 188 190 193 198 202 205 205 203 202 202 202 202 205 208 212 216